NOAA 16 DEB, 41203

Orbit data source: Space-Track

NOAA 16 DEB, 41203 is space debris in SSO originally from a launch on Thu, 21 Sep 2000 UTC launched from the Air Force Western Test Range (AFWTR). Debris objects in space refer to the collection of defunct objects orbiting the Earth. Examples of debris include non-operational satellites, rocket bodies, and fragments generated from explosions, collisions, or faulty payload assembly.

Loading next visibility...
Identifier
41203, 2000-055DG
Orbit
SSO
Last TLE update
3 days ago
Origin
Manufacturer
Unknown
Mission
Spacecraft
Bus & Motor
Unknown
Mass
Unknown
Launch date (UTC)
2000-09-21 (25 years ago)
Launch vehicle
Unknown
Launch site
Air Force Western Test Range (AFWTR)
Object type
Payload
Rocket body
Debris
Shape & HBR
Unknown
Radar Cross Section
Small (<0.1 m²)

Expand to show TLE details & history

TLE from 3 days ago
0 NOAA 16 DEB
1 41203U 00055DG  25180.35795353  .00001630  00000-0  81260-3 0  9996
2 41203  98.7053 225.1303 0034723  65.7579 294.7218 14.17967600491769
Epoch: 2025-06-29T08:35Z
TLE epoch observation values (Epoch: 2025-06-29T08:35:27.184Z)
Latitude
-0.00007°
Longitude
178.58378°
Altitude
824.746 km
Speed
7.446 km/s
True Right ascension
15h 00m 31s
True Declination
0° 00' 00"
Sunlit
Object was in full shadow at epoch
Visualization orbit readout
Latitude
45.8509°
Longitude
172.33273°
Altitude
814.603 km
Speed
7.463 km/s
Apparent Right ascension
09h 37m 27s
Apparent Declination
26° 41' 04"
Sunlit
Object is in daylight
Visualization observer readout
Local Sidereal Time
16:14:17
Azimuth
296.316° NW
Elevation
10.28°
Doppler factor
1
Orbital elements
Apogee altitude
854.422 km
Perigee altitude
804.369 km
Semi-major axis
7,207.532 km
Eccentricity
0.00347
Inclination
98.7053°
RAAN
225.1303°
Arg. of periapsis
65.7579°
True anomaly
Unknown
Mean anomaly
294.7218°
Eccentric anomaly
Unknown
Mean motion
3.54702 °/min
Orbital period
101.49 mins
BSTAR
0.0008126
Loading maneuver chart data...
Loading SW <> Apogee altitude chart data...
Loading historical data...
Loading historical data...
Loading historical data...
Loading historical data...
Loading historical data...
Loading historical data...
Loading historical data...

NOAA 16 DEB Visibility forecast

Observer location: undefined°, undefined°

Span
Click to sort rows by Start time (UTC) header in descending order
Start Az.
Max El. time (UTC)
Max El. Az.
Max El.
End time (UTC)
End Az.
8 mins2025-07-02 15:05:52.387Z44.644° NE2025-07-02 15:08:52.387Z90.129° ESE27.308°2025-07-02 15:13:52.387Z158.201° S
8 mins2025-07-02 16:45:52.387Z346.827° N2025-07-02 16:49:52.387Z282.699° WNW27.946°2025-07-02 16:53:52.387Z232.312° WSW
8 mins2025-07-03 02:28:52.387Z139.416° SSE2025-07-03 02:32:52.387Z59.03° ENE37.047°2025-07-03 02:36:52.387Z0.057° NNE
5 mins2025-07-03 04:10:52.387Z235.753° WSW2025-07-03 04:12:52.387Z262.882° W18.256°2025-07-03 04:15:52.387Z303.174° NW
|